Location: Devore Heights
(34.2372°N, 117.4156°W)
Time: 22:20:39
(UTC+00:00)

Transit 4A - Pass Details

Date: 18 September 2024
Orbit: 864 x 978 km, 66.8° (Epoch: 13 October)

Event Time Altitude Azimuth Distance (km) Brightness Sun altitude
Rises 08:30:57 0° 173° (S) 3,430 - -52.5°
Reaches altitude 10° 08:33:47 10° 161° (SSE) 2,502 - -52.3°
Maximum altitude 08:38:27 26° 106° (ESE) 1,664 - -51.9°
Drops below altitude 10° 08:43:11 10° 52° (NE) 2,554 - -51.5°
Exits shadow 08:44:30 - 46° (NE) 2,972 11.0 -51.4°
Sets 08:46:06 0° 40° (NE) 3,515 11.5 -51.3°
